Regional Weather Roundup
Issued by NWS

Home | Current Version | Previous Version | Graphics & Text | Print | Product List | Glossary Off
Versions: 1 2 3 4 5 6 7 8 9 10 11 12 13 14 15 16 17 18 19 20 21 22 23 24 25 26 27 28 29 30 31 32 33 34 35 36 37 38 39 40 41 42 43 44 45 46 47 48 49 50

000
ASUS43 KMKX 201800
RWRWI

WISCONSIN REGIONAL WEATHER ROUNDUP
NATIONAL WEATHER SERVICE MILWAUKEE/SULLIVAN WI
100 PM CDT SAT SEP 20 2014

NOTE: "FAIR" INDICATES FEW OR NO CLOUDS BELOW 12,000 FEET WITH NO
SIGNIFICANT WEATHER AND/OR OBSTRUCTIONS TO VISIBILITY.

WIZ001-002-006>008-014>016-023>028-201900-
NORTHWEST WISCONSIN

CITY           SKY/WX    TMP DP  RH WIND       PRES   REMARKS
SUPERIOR ARPT  PTSUNNY   65  53  63 W9G16     29.74F
ASHLAND        CLOUDY    65  54  67 W8G16     29.73R
6HR MIN TEMP:  64; 6HR MAX TEMP:  69;

HAYWARD        PTSUNNY   67  54  63 W8G18     29.75R
6HR MIN TEMP:  63; 6HR MAX TEMP:  68;

SIREN          PTSUNNY   68  55  64 W13G18    29.78S
RICE LAKE      MOSUNNY   69  55  61 W12       29.78S
LADYSMITH      MOSUNNY   71  58  62 W10       29.76F
EAU CLAIRE     NOT AVBL
MENOMONIE      CLEAR     73  57  57 W10G16    29.78S
NEW RICHMOND   SUNNY     73  55  54 NW10G17   29.79S
OSCEOLA        MOSUNNY   72  58  62 W13G18    29.81S
$$

WIZ003>005-009-010-017-018-201900-
NORTH CENTRAL WISCONSIN

CITY           SKY/WX    TMP DP  RH WIND       PRES   REMARKS
WOODRUFF       CLOUDY    66  56  70 W9G18     29.74R
RHINELANDER    MOSUNNY   72  57  59 W16G23    29.72S
6HR MIN TEMP:  64; 6HR MAX TEMP:  72;

EAGLE RIVER    CLOUDY    67  54  62 NW15G22   29.72R
LAND O LAKES   CLOUDY    68  56  65 NW14G20   29.72R
PHILLIPS       CLOUDY    69  57  66 W7        29.73R
TOMAHAWK       PTSUNNY   71  56  59 W10G23    29.72F
MEDFORD        PTSUNNY   70  58  66 W10G17    29.73F
MERRILL        PTSUNNY   71  59  64 W14       29.71F
$$

WIZ029-030-035-036-043>047-201900-
CENTRAL WISCONSIN

CITY           SKY/WX    TMP DP  RH WIND       PRES   REMARKS
WAUSAU         CLOUDY    73  59  61 W15       29.70F
6HR MIN TEMP:  63; 6HR MAX TEMP:  74;

MOSINEE        MOSUNNY   72  61  68 W15G24    29.74S
MARSHFIELD     CLOUDY    72  60  66 W12G21    29.74S
6HR MIN TEMP:  63; 6HR MAX TEMP:  73;

STEVENS POINT  CLOUDY    68  61  78 W10       29.74R
WAUPACA        CLOUDY    72  65  77 W10       29.73S
WAUTOMA        NOT AVBL
WISC RAPIDS    CLOUDY    71  63  75 W10       29.75S
6HR MIN TEMP:  62; 6HR MAX TEMP:  71;

CAMP DOUGLAS   NOT AVBL
$$

WIZ011>013-019>022-031-037>040-048>050-201900-
NORTHEAST WISCONSIN

CITY           SKY/WX    TMP DP  RH WIND       PRES   REMARKS
ANTIGO         CLOUDY    71  60  67 W17G23    29.70F
STURGEON BAY   PTSUNNY   72  63  73 SW15G22   29.69S
6HR MIN TEMP:  63; 6HR MAX TEMP:  72;

GREEN BAY      PTSUNNY   72  64  76 SW12      29.71S
6HR MIN TEMP:  64; 6HR MAX TEMP:  73; 6HR PCP: TRACE;

MANITOWOC      NOT AVBL
APPLETON       CLOUDY    70  63  78 W12       29.74S
CLINTONVILLE   CLOUDY    72  61  68 W10       29.70F
OSHKOSH        PTSUNNY   73  64  73 W9        29.74R
6HR MIN TEMP:  63; 6HR MAX TEMP:  74;

$$

WIZ032>034-041-042-053>061-201900-
SOUTHWEST WISCONSIN

CITY           SKY/WX    TMP DP  RH WIND       PRES   REMARKS
LA CROSSE      CLOUDY    75  64  68 W8        29.77F
6HR MIN TEMP:  65; 6HR MAX TEMP:  75; 6HR PCP: TRACE;

SPARTA         CLOUDY    69  62  77 W7        29.78S
VIROQUA        FAIR      69  65  88 W10G17    29.80S
BOSCOBEL       CLOUDY    72  64  76 SW6       29.78F
6HR MIN TEMP:  66; 6HR MAX TEMP:  74; 6HR PCP: TRACE;

PRAIRIE DU CHI CLOUDY    69  61  75 CALM      29.78F
PLATTEVILLE    PTSUNNY   72  64  76 SW8       29.84F
$$

WIZ056-057-062-063-064-067-068-201900-
SOUTH CENTRAL WISCONSIN

CITY           SKY/WX    TMP DP  RH WIND       PRES   REMARKS
BARABOO/DELLS  LGT RAIN  69  62  78 W9        29.79R
LONE ROCK      NOT AVBL
WATERTOWN      CLOUDY    74  65  73 SW17G24   29.79R
MADISON        LGT RAIN  74  63  68 VRB6      29.81R
6HR MIN TEMP:  65; 6HR MAX TEMP:  76; 6HR PCP: TRACE;

MIDDLETON      FAIR      75  62  64 SW10      29.81R
MONROE         CLOUDY    72  64  78 SW18G30   29.84R
JANESVILLE     PTSUNNY   79  61  53 SW17G23   29.81F HX  80
$$

WIZ051-052-058>065-066-070>072-201900-
SOUTHEAST WISCONSIN

CITY           SKY/WX    TMP DP  RH WIND       PRES   REMARKS
MILWAUKEE      PTSUNNY   77  61  57 SW18G30   29.78F
6HR MIN TEMP:  64; 6HR MAX TEMP:  78;

WAUKESHA       PTSUNNY   73  61  64 SW14G25   29.81R
MILWAUKEE/TIMM CLOUDY    75  61  60 SW16G23   29.79R
RACINE         PTSUNNY   77  62  59 SW15G21   29.82R
6HR MIN TEMP:  64; 6HR MAX TEMP:  77;

BURLINGTON     PTSUNNY   75  61  62 SW16G25   29.81S
KENOSHA        PTSUNNY   76  64  66 SW13      29.82S
6HR MIN TEMP:  64; 6HR MAX TEMP:  77;

FOND DU LAC    PTSUNNY   73  63  70 SW10      29.74F
6HR MIN TEMP:  64; 6HR MAX TEMP:  74;

SHEBOYGAN      CLOUDY    73  62  68 SW20      29.75R
6HR MIN TEMP:  64; 6HR MAX TEMP:  75;

WEST BEND      CLOUDY    72  61  68 SW10G17   29.78R
JUNEAU         PTSUNNY   74  64  71 SW18      29.79S
$$

LSZ147-162-201900-
LAKE SUPERIOR

STATION/POSITION TIME  TEMP    WIND        PRES    WAVE
                       AIR SEA DIR/SP/G            HT/PER
                 (UTC) (F)     (DEG/KT/KT) (MB)    (FT/S)
W MID LAKE BUOY  1650   54 47  260/ 12/ 14 1003.8R   2/ 4
DEVILS ISLAND    1700   58     270/ 13/ 15 1005.7R
PORT WING        1740   59     260/ 10/ 15 1007.5R
SAXON HARBOR     1700   65     310/ 12/ 16 1006.1R
$$

LMZ867-665-643>646-201900-
LAKE MICHIGAN

STATION/POSITION TIME  TEMP    WIND        PRES    WAVE
                       AIR SEA DIR/SP/G            HT/PER
                 (UTC) (F)     (DEG/KT/KT) (MB)    (FT/S)
N MID LAKE BUOY  1650   60 58  210/ 21/ 23 1003.8F   6/ 7
NORTHPORT PIER   1700   69     190/  4/ 12 1004.1S
SISTER BAY       1727          210/ 13/ 15   N/A
KEWAUNEE LAKESHO 1700   71     240/  8/ 15 1005.2R
SHEBOYGAN LAKESH 1700   72 54  250/ 19/ 23 1006.9S
PORT WASHINGTON  1700   77     240/ 10/ 19 1007.8F
ATWATER BUOY     1700   70     220/ 17/ 21 1009.4F
MILWAUKEE LAKESH 1700   74     220/ 18/ 23   N/A
S MID LAKE BUOY  1650   64 63  200/ 16/ 17 1009.5F   4/ 6
KENOSHA   LAKESH 1700   74     220/ 12/ 17 1009.5S
$$

TC  - TEMPERATURE IN CELSIUS
VSB - VISIBILITY IN STATUTE MILES
WCI - WIND CHILL INDEX
HX  - HEAT INDEX



USA.gov is the U.S. government's official web portal to all federal, state and local government web resources and services.